Time,TemperatureF,DewpointF,PressureIn,WindDirection,WindDirectionDegrees,WindSpeedMPH,WindSpeedGustMPH,Humidity,HourlyPrecipIn,Conditions,Clouds,dailyrainin,SoftwareType,DateUTC
2013-05-04 00:01:00,51.0,33.0,-100.00,NNE,27,12.0,15.0,51,0.00,,,-99.99,,2013-05-04 06:01:00,
2013-05-04 00:11:00,50.0,33.0,-100.00,NNE,13,11.0,13.0,52,0.00,,,-99.99,,2013-05-04 06:11:00,
2013-05-04 00:21:00,49.0,33.0,-100.00,NNE,25,10.0,12.0,52,0.00,,,-99.99,,2013-05-04 06:21:00,
2013-05-04 00:32:00,49.0,33.0,-100.00,NNE,25,10.0,12.0,52,0.00,,,-99.99,,2013-05-04 06:32:00,
2013-05-04 00:41:00,49.0,33.0,-100.00,NNE,25,10.0,12.0,52,0.00,,,-99.99,,2013-05-04 06:41:00,
2013-05-04 00:52:00,49.0,32.0,-100.00,NNE,13,12.0,14.0,53,0.00,,,-99.99,,2013-05-04 06:52:00,
2013-05-04 01:01:00,49.0,32.0,-100.00,NNE,13,12.0,14.0,53,0.00,,,-99.99,,2013-05-04 07:01:00,
2013-05-04 01:11:00,49.0,32.0,-100.00,NNE,16,11.0,13.0,52,0.00,,,-99.99,,2013-05-04 07:11:00,
2013-05-04 01:21:00,48.0,32.0,-100.00,NE,40,5.0,6.0,54,0.00,,,-99.99,,2013-05-04 07:21:00,
2013-05-04 01:31:00,48.0,32.0,-100.00,NE,40,5.0,6.0,54,0.00,,,-99.99,,2013-05-04 07:31:00,
2013-05-04 01:41:00,45.0,34.0,-100.00,SE,133,4.0,5.0,64,0.00,,,-99.99,,2013-05-04 07:41:00,
2013-05-04 01:52:00,45.0,34.0,-100.00,SE,133,4.0,5.0,64,0.00,,,-99.99,,2013-05-04 07:52:00,
2013-05-04 02:01:00,45.0,34.0,-100.00,SE,133,4.0,5.0,64,0.00,,,-99.99,,2013-05-04 08:01:00,
2013-05-04 02:11:00,47.0,35.0,-100.00,NE,35,7.0,9.0,61,0.00,,,-99.99,,2013-05-04 08:11:00,
2013-05-04 02:21:00,48.0,34.0,-100.00,NE,40,7.0,9.0,59,0.00,,,-99.99,,2013-05-04 08:21:00,
2013-05-04 02:31:00,48.0,34.0,-100.00,NE,40,7.0,9.0,59,0.00,,,-99.99,,2013-05-04 08:31:00,
2013-05-04 02:41:00,48.0,34.0,-100.00,NNE,28,11.0,14.0,58,0.00,,,-99.99,,2013-05-04 08:41:00,
2013-05-04 02:52:00,48.0,34.0,-100.00,NNE,28,11.0,14.0,58,0.00,,,-99.99,,2013-05-04 08:52:00,
2013-05-04 03:02:00,48.0,34.0,-100.00,NNE,28,11.0,14.0,58,0.00,,,-99.99,,2013-05-04 09:02:00,
2013-05-04 03:11:00,47.0,33.0,-100.00,NNE,23,5.0,7.0,59,0.00,,,-99.99,,2013-05-04 09:11:00,
2013-05-04 03:21:00,47.0,33.0,-100.00,NNE,14,11.0,13.0,59,0.00,,,-99.99,,2013-05-04 09:21:00,
2013-05-04 03:32:00,47.0,33.0,-100.00,NNE,14,11.0,13.0,59,0.00,,,-99.99,,2013-05-04 09:32:00,
2013-05-04 03:42:00,47.0,33.0,-100.00,NE,52,7.0,9.0,57,0.00,,,-99.99,,2013-05-04 09:42:00,
2013-05-04 03:53:00,47.0,33.0,-100.00,NE,52,7.0,9.0,57,0.00,,,-99.99,,2013-05-04 09:53:00,
2013-05-04 04:02:00,47.0,33.0,-100.00,NE,52,7.0,9.0,57,0.00,,,-99.99,,2013-05-04 10:02:00,
2013-05-04 04:12:00,48.0,33.0,-100.00,NE,41,10.0,13.0,56,0.00,,,-99.99,,2013-05-04 10:12:00,
2013-05-04 04:22:00,47.0,33.0,-100.00,NE,37,14.0,18.0,57,0.00,,,-99.99,,2013-05-04 10:22:00,
2013-05-04 04:33:00,47.0,33.0,-100.00,NE,37,14.0,18.0,57,0.00,,,-99.99,,2013-05-04 10:33:00,
2013-05-04 04:42:00,47.0,33.0,-100.00,NNE,28,13.0,17.0,58,0.00,,,-99.99,,2013-05-04 10:42:00,
2013-05-04 04:53:00,47.0,33.0,-100.00,NNE,28,14.0,18.0,58,0.00,,,-99.99,,2013-05-04 10:53:00,
2013-05-04 05:02:00,47.0,33.0,-100.00,NNE,28,14.0,18.0,58,0.00,,,-99.99,,2013-05-04 11:02:00,
2013-05-04 05:11:00,47.0,33.0,-100.00,NNE,28,14.0,18.0,58,0.00,,,-99.99,,2013-05-04 11:11:00,
2013-05-04 05:21:00,47.0,32.0,-100.00,NNE,20,17.0,21.0,54,0.00,,,-99.99,,2013-05-04 11:21:00,
2013-05-04 05:32:00,47.0,32.0,-100.00,NNE,20,17.0,21.0,54,0.00,,,-99.99,,2013-05-04 11:32:00,
2013-05-04 05:42:00,47.0,32.0,-100.00,North,11,24.0,28.0,54,0.00,,,-99.99,,2013-05-04 11:42:00,
2013-05-04 06:00:00,47.0,32.0,-100.00,NNE,13,19.0,27.0,54,0.00,,,-99.99,,2013-05-04 12:00:00,
2013-05-04 06:12:00,47.0,32.0,-100.00,NNE,13,21.0,26.0,54,0.00,,,-99.99,,2013-05-04 12:12:00,
2013-05-04 06:24:00,47.0,32.0,-100.00,NNE,13,21.0,26.0,54,0.00,,,-99.99,,2013-05-04 12:24:00,
2013-05-04 06:33:00,47.0,32.0,-100.00,NNE,13,21.0,26.0,54,0.00,,,-99.99,,2013-05-04 12:33:00,
2013-05-04 06:41:00,47.0,31.0,-100.00,North,6,18.0,26.0,55,0.00,,,-99.99,,2013-05-04 12:41:00,
2013-05-04 06:52:00,47.0,31.0,-100.00,North,6,20.0,27.0,55,0.00,,,-99.99,,2013-05-04 12:52:00,
2013-05-04 07:01:00,47.0,31.0,-100.00,North,6,20.0,27.0,55,0.00,,,-99.99,,2013-05-04 13:01:00,
2013-05-04 07:11:00,47.0,31.0,-100.00,North,4,17.0,20.0,55,0.00,,,-99.99,,2013-05-04 13:11:00,
2013-05-04 07:21:00,47.0,31.0,-100.00,North,4,17.0,20.0,55,0.00,,,-99.99,,2013-05-04 13:21:00,
2013-05-04 07:31:00,47.0,31.0,-100.00,North,4,17.0,20.0,55,0.00,,,-99.99,,2013-05-04 13:31:00,
2013-05-04 07:41:00,47.0,32.0,-100.00,NNE,23,14.0,20.0,55,0.00,,,-99.99,,2013-05-04 13:41:00,
2013-05-04 07:52:00,47.0,32.0,-100.00,NNE,32,17.0,22.0,55,0.00,,,-99.99,,2013-05-04 13:52:00,
2013-05-04 08:02:00,47.0,32.0,-100.00,NNE,32,17.0,22.0,55,0.00,,,-99.99,,2013-05-04 14:02:00,
2013-05-04 08:11:00,48.0,32.0,-100.00,NNE,25,20.0,26.0,54,0.00,,,-99.99,,2013-05-04 14:11:00,
2013-05-04 08:21:00,49.0,32.0,-100.00,NNE,18,21.0,26.0,53,0.00,,,-99.99,,2013-05-04 14:21:00,
2013-05-04 08:32:00,49.0,32.0,-100.00,NNE,18,21.0,26.0,53,0.00,,,-99.99,,2013-05-04 14:32:00,
2013-05-04 08:41:00,50.0,32.0,-100.00,NNE,23,23.0,28.0,50,0.00,,,-99.99,,2013-05-04 14:41:00,
2013-05-04 08:52:00,51.0,32.0,-100.00,NNE,21,25.0,31.0,48,0.00,,,-99.99,,2013-05-04 14:52:00,
2013-05-04 09:01:00,51.0,32.0,-100.00,NNE,21,25.0,31.0,48,0.00,,,-99.99,,2013-05-04 15:01:00,
2013-05-04 09:11:00,51.0,32.0,-100.00,NNE,23,25.0,29.0,47,0.00,,,-99.99,,2013-05-04 15:11:00,
2013-05-04 09:21:00,52.0,33.0,-100.00,NNE,23,22.0,26.0,49,0.00,,,-99.99,,2013-05-04 15:21:00,
2013-05-04 09:33:00,52.0,33.0,-100.00,NNE,23,22.0,26.0,49,0.00,,,-99.99,,2013-05-04 15:33:00,
2013-05-04 09:42:00,53.0,33.0,-100.00,NNE,16,24.0,30.0,47,0.00,,,-99.99,,2013-05-04 15:42:00,
2013-05-04 09:53:00,53.0,33.0,-100.00,NNE,16,24.0,30.0,47,0.00,,,-99.99,,2013-05-04 15:53:00,
2013-05-04 10:03:00,53.0,33.0,-100.00,NNE,16,24.0,30.0,47,0.00,,,-99.99,,2013-05-04 16:03:00,
2013-05-04 10:12:00,54.0,32.0,-100.00,NNE,17,23.0,29.0,43,0.00,,,-99.99,,2013-05-04 16:12:00,
2013-05-04 10:22:00,54.0,32.0,-100.00,NNE,20,22.0,27.0,42,0.00,,,-99.99,,2013-05-04 16:22:00,
2013-05-04 10:33:00,54.0,32.0,-100.00,NNE,20,22.0,27.0,42,0.00,,,-99.99,,2013-05-04 16:33:00,
2013-05-04 10:42:00,56.0,31.0,-100.00,NNE,17,18.0,22.0,39,0.00,,,-99.99,,2013-05-04 16:42:00,
2013-05-04 10:52:00,56.0,31.0,-100.00,NNE,17,18.0,22.0,39,0.00,,,-99.99,,2013-05-04 16:52:00,
2013-05-04 11:02:00,56.0,31.0,-100.00,NNE,17,18.0,22.0,39,0.00,,,-99.99,,2013-05-04 17:02:00,
2013-05-04 11:12:00,56.0,34.0,-100.00,NNE,13,25.0,31.0,43,0.00,,,-99.99,,2013-05-04 17:12:00,
2013-05-04 11:22:00,57.0,33.0,-100.00,NNE,18,22.0,28.0,41,0.00,,,-99.99,,2013-05-04 17:22:00,
2013-05-04 11:32:00,57.0,33.0,-100.00,NNE,18,22.0,28.0,41,0.00,,,-99.99,,2013-05-04 17:32:00,
2013-05-04 11:42:00,58.0,31.0,-100.00,NNE,20,20.0,25.0,36,0.00,,,-99.99,,2013-05-04 17:42:00,
2013-05-04 11:52:00,58.0,31.0,-100.00,NNE,20,20.0,25.0,36,0.00,,,-99.99,,2013-05-04 17:52:00,
2013-05-04 12:01:00,58.0,31.0,-100.00,NNE,20,20.0,25.0,36,0.00,,,-99.99,,2013-05-04 18:01:00,
2013-05-04 12:12:00,59.0,31.0,-100.00,NNE,28,22.0,27.0,34,0.00,,,-99.99,,2013-05-04 18:12:00,
2013-05-04 12:21:00,59.0,30.0,-100.00,NNE,24,18.0,22.0,33,0.00,,,-99.99,,2013-05-04 18:21:00,
2013-05-04 12:32:00,59.0,30.0,-100.00,NNE,24,18.0,22.0,33,0.00,,,-99.99,,2013-05-04 18:32:00,
2013-05-04 12:42:00,61.0,33.0,-100.00,NNE,21,16.0,20.0,35,0.00,,,-99.99,,2013-05-04 18:42:00,
2013-05-04 12:52:00,62.0,30.0,-100.00,NE,44,17.0,21.0,29,0.00,,,-99.99,,2013-05-04 18:52:00,
2013-05-04 13:01:00,62.0,30.0,-100.00,NE,44,17.0,21.0,29,0.00,,,-99.99,,2013-05-04 19:01:00,
2013-05-04 13:11:00,62.0,30.0,-100.00,NE,44,17.0,21.0,29,0.00,,,-99.99,,2013-05-04 19:11:00,
2013-05-04 13:21:00,62.0,31.0,-100.00,North,0,17.0,22.0,31,0.00,,,-99.99,,2013-05-04 19:21:00,
2013-05-04 13:31:00,62.0,31.0,-100.00,North,0,17.0,22.0,31,0.00,,,-99.99,,2013-05-04 19:31:00,
2013-05-04 13:42:00,62.0,31.0,-100.00,North,0,17.0,22.0,31,0.00,,,-99.99,,2013-05-04 19:42:00,
2013-05-04 13:52:00,62.0,28.0,-100.00,NE,51,15.0,21.0,28,0.00,,,-99.99,,2013-05-04 19:52:00,
2013-05-04 14:01:00,62.0,28.0,-100.00,NE,51,15.0,21.0,28,0.00,,,-99.99,,2013-05-04 20:01:00,
2013-05-04 14:11:00,63.0,27.0,-100.00,NNE,31,17.0,22.0,26,0.00,,,-99.99,,2013-05-04 20:11:00,
2013-05-04 14:21:00,63.0,27.0,-100.00,NNE,31,17.0,22.0,26,0.00,,,-99.99,,2013-05-04 20:21:00,
2013-05-04 14:31:00,63.0,27.0,-100.00,NNE,31,17.0,22.0,26,0.00,,,-99.99,,2013-05-04 20:31:00,
2013-05-04 14:41:00,62.0,30.0,-100.00,NNE,25,20.0,25.0,29,0.00,,,-99.99,,2013-05-04 20:41:00,
2013-05-04 14:52:00,59.0,32.0,-100.00,NE,56,26.0,31.0,36,0.00,,,-99.99,,2013-05-04 20:52:00,
2013-05-04 15:02:00,59.0,32.0,-100.00,NE,56,26.0,31.0,36,0.00,,,-99.99,,2013-05-04 21:02:00,
2013-05-04 15:11:00,56.0,34.0,-100.00,NE,51,28.0,34.0,42,0.00,,,-99.99,,2013-05-04 21:11:00,
2013-05-04 15:22:00,57.0,34.0,-100.00,NE,42,22.0,28.0,42,0.00,,,-99.99,,2013-05-04 21:22:00,
2013-05-04 15:32:00,57.0,34.0,-100.00,NE,42,22.0,28.0,42,0.00,,,-99.99,,2013-05-04 21:32:00,
2013-05-04 15:43:00,58.0,34.0,-100.00,ENE,62,17.0,23.0,40,0.00,,,-99.99,,2013-05-04 21:43:00,
2013-05-04 15:53:00,58.0,36.0,-100.00,NNE,31,19.0,25.0,43,0.00,,,-99.99,,2013-05-04 21:53:00,
2013-05-04 16:02:00,58.0,36.0,-100.00,NNE,31,19.0,25.0,43,0.00,,,-99.99,,2013-05-04 22:02:00,
2013-05-04 16:12:00,58.0,38.0,-100.00,NNE,13,19.0,24.0,47,0.00,,,-99.99,,2013-05-04 22:12:00,
2013-05-04 16:22:00,58.0,38.0,-100.00,NNE,13,19.0,24.0,47,0.00,,,-99.99,,2013-05-04 22:22:00,
2013-05-04 16:32:00,58.0,38.0,-100.00,NNE,13,19.0,24.0,47,0.00,,,-99.99,,2013-05-04 22:32:00,
2013-05-04 16:42:00,56.0,37.0,-100.00,North,4,18.0,21.0,49,0.00,,,-99.99,,2013-05-04 22:42:00,
2013-05-04 16:52:00,57.0,35.0,-100.00,North,357,21.0,25.0,44,0.00,,,-99.99,,2013-05-04 22:52:00,
2013-05-04 17:02:00,57.0,35.0,-100.00,North,357,21.0,25.0,44,0.00,,,-99.99,,2013-05-04 23:02:00,
2013-05-04 17:11:00,57.0,37.0,-100.00,North,349,22.0,27.0,47,0.00,,,-99.99,,2013-05-04 23:11:00,
2013-05-04 17:21:00,57.0,35.0,-100.00,North,353,23.0,27.0,43,0.00,,,-99.99,,2013-05-04 23:21:00,
2013-05-04 17:32:00,57.0,35.0,-100.00,North,353,23.0,27.0,43,0.00,,,-99.99,,2013-05-04 23:32:00,
2013-05-04 17:42:00,56.0,36.0,-100.00,North,353,22.0,26.0,46,0.00,,,-99.99,,2013-05-04 23:42:00,
2013-05-04 17:52:00,56.0,36.0,-100.00,North,353,22.0,26.0,46,0.00,,,-99.99,,2013-05-04 23:52:00,
2013-05-04 18:01:00,56.0,36.0,-100.00,North,353,22.0,26.0,46,0.00,,,-99.99,,2013-05-05 00:01:00,
2013-05-04 18:11:00,55.0,38.0,-100.00,North,359,22.0,26.0,53,0.00,,,-99.99,,2013-05-05 00:11:00,
2013-05-04 18:21:00,56.0,38.0,-100.00,North,359,24.0,28.0,52,0.00,,,-99.99,,2013-05-05 00:21:00,
2013-05-04 18:31:00,56.0,38.0,-100.00,North,359,24.0,28.0,52,0.00,,,-99.99,,2013-05-05 00:31:00,
2013-05-04 18:42:00,57.0,39.0,-100.00,North,3,22.0,27.0,52,0.00,,,-99.99,,2013-05-05 00:42:00,
2013-05-04 18:52:00,56.0,39.0,-100.00,North,354,23.0,27.0,53,0.00,,,-99.99,,2013-05-05 00:52:00,
2013-05-04 19:01:00,56.0,39.0,-100.00,North,354,23.0,27.0,53,0.00,,,-99.99,,2013-05-05 01:01:00,
2013-05-04 19:11:00,56.0,39.0,-100.00,North,354,23.0,27.0,53,0.00,,,-99.99,,2013-05-05 01:11:00,
2013-05-04 19:21:00,53.0,41.0,-100.00,North,354,25.0,28.0,63,0.00,,,-99.99,,2013-05-05 01:21:00,
2013-05-04 19:32:00,53.0,41.0,-100.00,North,354,25.0,28.0,63,0.00,,,-99.99,,2013-05-05 01:32:00,
2013-05-04 19:42:00,52.0,40.0,-100.00,North,357,24.0,31.0,63,0.00,,,-99.99,,2013-05-05 01:42:00,
2013-05-04 19:52:00,52.0,40.0,-100.00,North,357,24.0,31.0,63,0.00,,,-99.99,,2013-05-05 01:52:00,
2013-05-04 20:02:00,52.0,40.0,-100.00,North,357,24.0,31.0,63,0.00,,,-99.99,,2013-05-05 02:02:00,
2013-05-04 20:11:00,52.0,40.0,-100.00,North,357,24.0,31.0,63,0.00,,,-99.99,,2013-05-05 02:11:00,
2013-05-04 20:21:00,50.0,40.0,-100.00,North,0,19.0,22.0,68,0.00,,,-99.99,,2013-05-05 02:21:00,
2013-05-04 20:31:00,50.0,40.0,-100.00,North,0,19.0,22.0,68,0.00,,,-99.99,,2013-05-05 02:31:00,
2013-05-04 20:42:00,50.0,39.0,-100.00,North,357,24.0,28.0,66,0.00,,,-99.99,,2013-05-05 02:42:00,
2013-05-04 20:52:00,50.0,39.0,-100.00,North,353,20.0,24.0,66,0.00,,,-99.99,,2013-05-05 02:52:00,
2013-05-04 21:01:00,50.0,39.0,-100.00,North,353,20.0,24.0,66,0.00,,,-99.99,,2013-05-05 03:01:00,
2013-05-04 21:11:00,49.0,38.0,-100.00,North,357,18.0,22.0,66,0.00,,,-99.99,,2013-05-05 03:11:00,
2013-05-04 21:21:00,49.0,38.0,-100.00,North,357,18.0,22.0,66,0.00,,,-99.99,,2013-05-05 03:21:00,
2013-05-04 21:32:00,49.0,38.0,-100.00,North,357,18.0,22.0,66,0.00,,,-99.99,,2013-05-05 03:32:00,
2013-05-04 21:42:00,49.0,36.0,-100.00,North,0,19.0,23.0,62,0.00,,,-99.99,,2013-05-05 03:42:00,
2013-05-04 21:53:00,49.0,36.0,-100.00,North,0,18.0,23.0,63,0.00,,,-99.99,,2013-05-05 03:53:00,
2013-05-04 22:02:00,49.0,36.0,-100.00,North,0,18.0,23.0,63,0.00,,,-99.99,,2013-05-05 04:02:00,
2013-05-04 22:12:00,48.0,37.0,-100.00,North,360,17.0,22.0,64,0.00,,,-99.99,,2013-05-05 04:12:00,
2013-05-04 22:22:00,48.0,37.0,-100.00,North,360,17.0,22.0,64,0.00,,,-99.99,,2013-05-05 04:22:00,
2013-05-04 22:32:00,48.0,37.0,-100.00,North,360,17.0,22.0,64,0.00,,,-99.99,,2013-05-05 04:32:00,
2013-05-04 22:43:00,48.0,37.0,-100.00,North,6,19.0,22.0,66,0.00,,,-99.99,,2013-05-05 04:43:00,
2013-05-04 22:52:00,48.0,37.0,-100.00,North,8,19.0,24.0,66,0.00,,,-99.99,,2013-05-05 04:52:00,
2013-05-04 23:02:00,48.0,37.0,-100.00,North,8,19.0,24.0,66,0.00,,,-99.99,,2013-05-05 05:02:00,
2013-05-04 23:12:00,47.0,37.0,-100.00,NNE,14,17.0,20.0,66,0.00,,,-99.99,,2013-05-05 05:12:00,
2013-05-04 23:21:00,47.0,36.0,-100.00,NNE,14,16.0,19.0,66,0.00,,,-99.99,,2013-05-05 05:21:00,
2013-05-04 23:31:00,47.0,36.0,-100.00,NNE,14,16.0,19.0,66,0.00,,,-99.99,,2013-05-05 05:31:00,
2013-05-04 23:42:00,47.0,36.0,-100.00,NNE,14,16.0,19.0,66,0.00,,,-99.99,,2013-05-05 05:42:00,
2013-05-04 23:52:00,47.0,36.0,-100.00,NNE,16,13.0,15.0,66,0.00,,,-99.99,,2013-05-05 05:52:00,